Regional Weather Roundup
Issued by NWS

Home | Current Version | Previous Version | Text Only | Print | Product List | Glossary On
Versions: 1 2 3 4 5 6 7 8 9 10 11 12 13 14 15 16 17 18 19 20 21 22 23 24 25 26 27 28 29 30 31 32 33 34 35 36 37 38 39 40 41 42 43 44 45 46 47 48 49 50
000
ASUS45 KCYS 211510
RWRWY

WYOMING REGIONAL WEATHER ROUNDUP
NATIONAL WEATHER SERVICE CHEYENNE WY
800 AM MST TUE NOV 21 2017

NOTE:  "FAIR" INDICATES FEW OR NO CLOUDS BELOW 12,000 FEET
WITH NO SIGNIFICANT WEATHER AND/OR OBSTRUCTIONS TO VISIBILITY.

WYZ001-211600-
YELLOWSTONE NATIONAL PARK

CITY           SKY/WX    TMP DP  RH WIND       PRES   REMARKS
LK YELLOWSTONE   N/A     20  19  96 CALM      30.28R
W YELLOWSTONE  NOT AVBL

$$
WYZ002>013-054>058-071-098>099-211600-
NORTHERN WYOMING

CITY           SKY/WX    TMP DP  RH WIND       PRES   REMARKS
JACKSON        FAIR      32  31  96 N3        30.27R
CODY           FAIR      25  24  96 CALM      30.24R
GREYBULL       FAIR      27  25  92 NW6       30.26R WCI  20
WORLAND        CLOUDY    32  31  96 E7        30.26R WCI  26
SHERIDAN       CLOUDY    27  25  92 SE3       30.29R
BUFFALO        CLOUDY    25  22  88 SE6       30.27R WCI  18
GILLETTE       CLOUDY    26  20  77 W3        30.28R
HULETT         CLOUDY    27  23  86 W5        30.28R WCI  21
NEWCASTLE      CLOUDY    28  19  69 NW15      30.27R WCI  17

$$
WYZ014>020-022>026-101>103-211600-
CENTRAL WYOMING

CITY           SKY/WX    TMP DP  RH WIND       PRES   REMARKS
BIG PINEY      FOG       28  28 100 W3        30.27R VSB<1/4
PINEDALE       FOG       27  27 100 CALM      30.26R VSB<1/4
DUBOIS         PTSUNNY   32  28  86 SE6       30.22R WCI  26
LANDER           N/A     34  29  82 N5        30.20R WCI  30
RIVERTON       MOCLDY    34  31  88 NE5       30.22R WCI  30
CASPER         CLOUDY    29  26  89 N8        30.27R WCI  21
DOUGLAS        CLOUDY    28  24  85 N8        30.29R WCI  20

$$
WYZ021-027>030-104>119-211600-
SOUTHERN WYOMING

CITY           SKY/WX    TMP DP  RH WIND       PRES   REMARKS
EVANSTON       FAIR      38  35  89 W17       30.31R WCI  28
KEMMERER       PTSUNNY   36  34  93 S9        30.30R WCI  29
FORT BRIDGER   CLOUDY    39  38  94 W13       30.34R WCI  32
ROCK SPRINGS   CLOUDY    37  33  85 SW17      30.27R WCI  27
DIXON          CLOUDY    35  31  87 CALM      30.30R
RAWLINS        CLOUDY    36  33  89 W3        30.24R
SARATOGA       LGT RAIN  34  34 100 N7        30.26R WCI  28
LARAMIE        CLOUDY    33  33 100 NW13      30.21R WCI  24
CHEYENNE       MOCLDY    34  30  85 N10       30.23R WCI  26
TORRINGTON     FAIR      33  28  81 N5        30.25R WCI  29
PINE BLUFFS    CLOUDY    32  27  80 MISG      30.25R

$$



USA.gov is the U.S. government's official web portal to all federal, state and local government web resources and services.